When you browse on this site, cookies collect data to enhance your experience and personalize the content and advertising you see.
Visit our Privacy Policy to learn more. By continuing to use the site, you agree to this use of cookies and data.
  • In Czech Republic
  • List of Countries
  • For 7 days
  • Water Temperature
  • Satellite Maps
  • Weather Map
  • Weather Widgets
  • user-avatar
    Login

    Hourly Weather Nowy Targ

    Today, 20 January, Sunday

    Time Temperature Precipitation Wind Pressure Humidity
    00:00 -9°C° 0 mm 1 mps 709 mmHg 81%
    01:00 -9°C° 0 mm 1 mps 709 mmHg 80%
    02:00 -8°C° 0 mm 1 mps 708 mmHg 80%
    03:00 -8°C° 0 mm 1 mps 708 mmHg 79%
    04:00 -8°C° 0 mm 1 mps 708 mmHg 79%
    05:00 -8°C° 0 mm 1 mps 708 mmHg 79%
    06:00 -8°C° 0 mm 1 mps 707 mmHg 79%
    07:00 -8°C° 0 mm 0 mps 707 mmHg 78%
    08:00 -7°C° 0 mm 0 mps 707 mmHg 79%
    09:00 -5°C° 0 mm 0 mps 708 mmHg 80%
    10:00 -4°C° 0 mm 0 mps 708 mmHg 81%
    11:00 -4°C° 0 mm 0 mps 708 mmHg 81%
    12:00 -3°C° 0 mm 0 mps 708 mmHg 81%
    13:00 -2°C° 0 mm 1 mps 708 mmHg 81%
    14:00 -3°C° 0 mm 1 mps 707 mmHg 84%
    15:00 -4°C° 0 mm 1 mps 707 mmHg 88%
    16:00 -7°C° 0 mm 1 mps 707 mmHg 91%
    17:00 -8°C° 0 mm 0 mps 707 mmHg 91%
    18:00 -9°C° 0 mm 0 mps 707 mmHg 91%
    19:00 -10°C° 0 mm 0 mps 707 mmHg 91%
    20:00 -11°C° 0 mm 0 mps 707 mmHg 89%
    21:00 -11°C° 0 mm 1 mps 708 mmHg 88%
    22:00 -11°C° 0 mm 1 mps 708 mmHg 86%
    23:00 -11°C° 0 mm 1 mps 708 mmHg 86%

    Tomorrow, 21 January, Monday

    Time Temperature Precipitation Wind Pressure Humidity
    00:00 -11°C° 0 mm 1 mps 709 mmHg 85%
    01:00 -12°C° 0 mm 1 mps 709 mmHg 84%
    02:00 -12°C° 0 mm 1 mps 709 mmHg 84%
    03:00 -12°C° 0 mm 1 mps 709 mmHg 83%
    04:00 -12°C° 0 mm 1 mps 709 mmHg 83%
    05:00 -12°C° 0 mm 1 mps 709 mmHg 82%
    06:00 -12°C° 0 mm 1 mps 710 mmHg 82%
    07:00 -12°C° 0 mm 1 mps 710 mmHg 82%
    08:00 -10°C° 0 mm 1 mps 710 mmHg 81%
    09:00 -8°C° 0 mm 0 mps 711 mmHg 81%
    10:00 -6°C° 0 mm 0 mps 712 mmHg 80%
    11:00 -5°C° 0 mm 0 mps 712 mmHg 79%
    12:00 -4°C° 0 mm 0 mps 712 mmHg 77%
    13:00 -3°C° 0 mm 0 mps 712 mmHg 76%
    14:00 -4°C° 0 mm 0 mps 711 mmHg 80%
    15:00 -6°C° 0 mm 0 mps 711 mmHg 84%
    16:00 -7°C° 0 mm 0 mps 710 mmHg 88%
    17:00 -8°C° 0 mm 1 mps 710 mmHg 88%
    18:00 -9°C° 0 mm 1 mps 710 mmHg 87%
    19:00 -9°C° 0 mm 1 mps 710 mmHg 87%
    20:00 -10°C° 0 mm 1 mps 710 mmHg 86%
    21:00 -10°C° 0 mm 1 mps 710 mmHg 85%
    22:00 -10°C° 0 mm 1 mps 710 mmHg 83%
    23:00 -10°C° 0 mm 1 mps 710 mmHg 82%

    Day after tomorrow, 22 January, Tuesday

    Time Temperature Precipitation Wind Pressure Humidity
    00:00 -10°C° 0 mm 1 mps 709 mmHg 82%
    01:00 -10°C° 0 mm 1 mps 709 mmHg 81%
    02:00 -10°C° 0 mm 1 mps 709 mmHg 80%
    03:00 -10°C° 0 mm 1 mps 708 mmHg 80%
    04:00 -10°C° 0 mm 1 mps 708 mmHg 80%
    05:00 -10°C° 0 mm 1 mps 708 mmHg 79%
    06:00 -10°C° 0 mm 1 mps 708 mmHg 79%
    07:00 -10°C° 0 mm 1 mps 707 mmHg 78%
    08:00 -9°C° 0 mm 1 mps 707 mmHg 78%
    09:00 -7°C° 0 mm 1 mps 707 mmHg 78%
    10:00 -4°C° 0 mm 1 mps 708 mmHg 78%
    11:00 -3°C° 0 mm 1 mps 707 mmHg 76%
    12:00 -1°C° 0 mm 1 mps 707 mmHg 74%
    13:00 -1°C° 0 mm 0 mps 706 mmHg 72%
    14:00 -3°C° 0 mm 0 mps 705 mmHg 76%
    15:00 -3°C° 0 mm 1 mps 705 mmHg 81%
    16:00 -6°C° 0 mm 1 mps 704 mmHg 85%
    17:00 -7°C° 0 mm 1 mps 703 mmHg 85%
    18:00 -8°C° 0 mm 1 mps 703 mmHg 86%
    19:00 -9°C° 0 mm 1 mps 702 mmHg 87%
    20:00 -9°C° 0 mm 1 mps 702 mmHg 85%
    21:00 -10°C° 0 mm 2 mps 702 mmHg 83%
    22:00 -10°C° 0 mm 2 mps 701 mmHg 81%
    23:00 -9°C° 0 mm 2 mps 701 mmHg 81%

    23 January, Wednesday

    Time Temperature Precipitation Wind Pressure Humidity
    00:00 -9°C° 0 mm 2 mps 700 mmHg 81%
    01:00 -9°C° 0 mm 2 mps 700 mmHg 80%
    02:00 -7°C° 0.1 mm 1 mps 699 mmHg 83%
    03:00 -6°C° 0.1 mm 1 mps 699 mmHg 86%
    04:00 -4°C° 0.1 mm 1 mps 699 mmHg 89%
    05:00 -4°C° 0 mm 1 mps 698 mmHg 90%
    06:00 -4°C° 0 mm 1 mps 698 mmHg 91%
    07:00 -3°C° 0 mm 1 mps 698 mmHg 92%
    08:00 -2°C° 0.1 mm 1 mps 698 mmHg 92%
    09:00 -1°C° 0.1 mm 1 mps 698 mmHg 92%
    10:00 0°C° 0.1 mm 1 mps 698 mmHg 92%
    11:00 +1°C° 0.2 mm 1 mps 698 mmHg 94%
    12:00 +1°C° 0.2 mm 1 mps 698 mmHg 95%
    13:00 +2°C° 0.2 mm 1 mps 698 mmHg 97%
    14:00 +2°C° 0.1 mm 1 mps 698 mmHg 97%
    15:00 +1°C° 0.1 mm 1 mps 697 mmHg 96%
    16:00 +1°C° 0.1 mm 1 mps 697 mmHg 96%
    17:00 +1°C° 0.1 mm 1 mps 697 mmHg 96%
    18:00 -1°C° 0.1 mm 0 mps 698 mmHg 96%
    19:00 -1°C° 0.1 mm 0 mps 698 mmHg 95%
    20:00 -1°C° 0.2 mm 0 mps 698 mmHg 95%
    21:00 -1°C° 0.2 mm 0 mps 698 mmHg 95%
    22:00 -1°C° 0.2 mm 0 mps 698 mmHg 95%
    23:00 -1°C° 0.3 mm 0 mps 698 mmHg 96%

    24 January, Thursday

    Time Temperature Precipitation Wind Pressure Humidity
    00:00 -1°C° 0.3 mm 0 mps 698 mmHg 96%
    01:00 -1°C° 0.3 mm 0 mps 698 mmHg 96%
    02:00 -1°C° 0.4 mm 0 mps 698 mmHg 97%
    03:00 -1°C° 0.4 mm 0 mps 698 mmHg 97%
    04:00 -1°C° 0.4 mm 0 mps 698 mmHg 97%
    05:00 -1°C° 0.4 mm 0 mps 699 mmHg 97%
    06:00 -1°C° 0.4 mm 0 mps 699 mmHg 97%
    07:00 -1°C° 0.4 mm 0 mps 699 mmHg 97%
    08:00 -1°C° 0.2 mm 0 mps 699 mmHg 96%
    09:00 -1°C° 0.2 mm 0 mps 700 mmHg 96%
    10:00 0°C° 0.2 mm 0 mps 700 mmHg 96%
    11:00 +1°C° 0.2 mm 1 mps 700 mmHg 96%
    12:00 +1°C° 0.2 mm 1 mps 700 mmHg 97%
    13:00 +2°C° 0.2 mm 1 mps 700 mmHg 98%
    14:00 +1°C° 0.1 mm 1 mps 700 mmHg 97%
    15:00 +1°C° 0.1 mm 1 mps 700 mmHg 97%
    16:00 0°C° 0.1 mm 1 mps 700 mmHg 97%
    17:00 0°C° 0.1 mm 1 mps 700 mmHg 97%
    18:00 -1°C° 0.1 mm 1 mps 700 mmHg 98%
    19:00 -1°C° 0.1 mm 1 mps 700 mmHg 98%
    20:00 -1°C° 0 mm 1 mps 701 mmHg 98%
    21:00 -1°C° 0 mm 1 mps 701 mmHg 98%
    22:00 -1°C° 0 mm 1 mps 701 mmHg 98%
    23:00 -2°C° 0 mm 1 mps 701 mmHg 98%

    25 January, Friday

    Time Temperature Precipitation Wind Pressure Humidity
    00:00 -2°C° 0 mm 1 mps 701 mmHg 98%
    01:00 -2°C° 0 mm 1 mps 701 mmHg 98%
    02:00 -4°C° 0.1 mm 2 mps 701 mmHg 98%
    03:00 -4°C° 0.1 mm 2 mps 701 mmHg 98%
    04:00 -3°C° 0.1 mm 2 mps 701 mmHg 98%
    05:00 -3°C° 0.1 mm 2 mps 702 mmHg 98%
    06:00 -3°C° 0.1 mm 2 mps 702 mmHg 98%
    07:00 -3°C° 0.1 mm 2 mps 702 mmHg 98%
    08:00 -3°C° 0.1 mm 2 mps 702 mmHg 98%
    09:00 -3°C° 0.1 mm 2 mps 703 mmHg 97%
    10:00 -3°C° 0.1 mm 2 mps 703 mmHg 97%
    11:00 -2°C° 0.2 mm 2 mps 703 mmHg 97%
    12:00 -2°C° 0.2 mm 2 mps 703 mmHg 97%
    13:00 -2°C° 0.2 mm 2 mps 703 mmHg 96%
    14:00 -2°C° 0.3 mm 2 mps 704 mmHg 97%
    15:00 -3°C° 0.3 mm 2 mps 704 mmHg 97%
    16:00 -3°C° 0.3 mm 2 mps 704 mmHg 97%
    17:00 -3°C° 0.3 mm 2 mps 704 mmHg 97%
    18:00 -3°C° 0.3 mm 2 mps 705 mmHg 97%
    19:00 -4°C° 0.3 mm 3 mps 705 mmHg 97%
    20:00 -3°C° 0.3 mm 2 mps 706 mmHg 98%
    21:00 -4°C° 0.3 mm 2 mps 706 mmHg 98%
    22:00 -4°C° 0.3 mm 2 mps 706 mmHg 98%
    23:00 -4°C° 0.3 mm 2 mps 706 mmHg 98%
    Show more